QPF
0.06 0.06 0.06 0.06 0.05 0.05 0.05 0.05 0.05 0.04 0.03 0.02 0.02 0.02 0.02 0.02 0.02 0.03 0.04 0.05 0.04 0.03 0.02 0.01 0.01 0.01 0.02 0.02 0.02 0.03 0.04 0.04 0.03 0.04 0.05 0.06 0.05 0.04
0.04 0.05 0.05 0.05 0.06 0.05 0.06 0.06 0.07 0.06 0.04 0.02 0.02 0.02 0.02 0.02 0.01 0.02 0.03 0.04 0.04 0.03 0.03 0.02 0.01 0.01 0.01 0.02 0.02 0.02 0.03 0.03 0.03 0.04 0.05 0.05 0.05 0.04
0.06 0.06 0.05 0.04 0.04 0.04 0.05 0.05 0.05 0.06 0.05 0.03 0.02 0.02 0.02 0.02 0.02 0.02 0.03 0.03 0.03 0.03 0.02 0.01 0.01 0.01 0.01 0.02 0.02 0.02 0.02 0.03 0.03 0.04 0.04 0.04 0.04 0.04
0.05 0.05 0.05 0.05 0.05 0.05 0.05 0.04 0.04 0.04 0.04 0.03 0.02 0.02 0.03 0.03 0.02 0.03 0.03 0.03 0.03 0.04 0.03 0.02 0.01 0.01 0.01 0.01 0.02 0.02 0.03 0.02 0.03 0.03 0.03 0.03 0.04 0.05
0.04 0.04 0.04 0.04 0.03 0.03 0.04 0.04 0.04 0.04 0.04 0.04 0.03 0.03 0.04 0.03 0.03 0.03 0.04 0.04 0.03 0.03 0.03 0.02 0.01 0.01 0.01 0.02 0.02 0.02 0.03 0.03 0.03 0.04 0.03 0.03 0.04 0.04
0.03 0.02 0.02 0.02 0.02 0.03 0.03 0.03 0.03 0.03 0.03 0.04 0.03 0.03 0.04 0.05 0.04 0.04 0.04 0.04 0.03 0.02 0.02 0.02 0.02 0.01 0.01 0.02 0.03 0.03 0.03 0.03 0.03 0.03 0.03 0.03 0.03 0.04
0.02 0.02 0.01 0.02 0.02 0.03 0.03 0.02 0.02 0.03 0.03 0.03 0.03 0.02 0.03 0.04 0.03 0.03 0.04 0.05 0.03 0.02 0.02 0.02 0.02 0.02 0.02 0.02 0.03 0.03 0.03 0.04 0.04 0.04 0.03 0.03 0.03 0.03
0.01 0.01 0.01 0.01 0.01 0.02 0.02 0.02 0.02 0.02 0.03 0.03 0.03 0.02 0.03 0.03 0.02 0.02 0.02 0.04 0.04 0.02 0.02 0.02 0.02 0.02 0.02 0.02 0.03 0.04 0.04 0.04 0.04 0.04 0.04 0.03 0.02 0.02
0.01 0.01 0.01 0.01 0.01 0.02 0.01 0.02 0.02 0.02 0.02 0.02 0.03 0.02 0.02 0.03 0.03 0.02 0.02 0.02 0.02 0.02 0.02 0.03 0.02 0.03 0.03 0.03 0.03 0.03 0.04 0.04 0.03 0.03 0.03 0.03 0.03 0.02
0.02 0.01 0.01 0.01 0.01 0.02 0.02 0.02 0.02 0.02 0.02 0.02 0.03 0.02 0.03 0.03 0.03 0.03 0.03 0.03 0.03 0.02 0.02 0.03 0.02 0.03 0.05 0.05 0.04 0.03 0.03 0.03 0.03 0.03 0.03 0.04 0.03 0.03
0.02 0.02 0.02 0.02 0.02 0.02 0.02 0.02 0.02 0.02 0.03 0.03 0.03 0.03 0.03 0.03 0.04 0.04 0.04 0.04 0.04 0.03 0.03 0.03 0.03 0.03 0.04 0.05 0.05 0.04 0.03 0.03 0.03 0.03 0.03 0.03 0.04 0.04
0.03 0.02 0.02 0.02 0.02 0.03 0.03 0.02 0.02 0.01 0.02 0.03 0.03 0.03 0.03 0.03 0.04 0.04 0.04 0.05 0.04 0.04 0.03 0.03 0.03 0.03 0.04 0.04 0.04 0.03 0.03 0.03 0.04 0.03 0.03 0.04 0.04 0.05
0.04 0.03 0.03 0.03 0.03 0.03 0.03 0.03 0.03 0.02 0.02 0.03 0.03 0.03 0.03 0.03 0.03 0.03 0.04 0.05 0.05 0.04 0.03 0.03 0.03 0.03 0.03 0.04 0.03 0.03 0.03 0.03 0.03 0.03 0.04 0.04 0.04 0.05
0.04 0.03 0.03 0.04 0.03 0.03 0.04 0.04 0.04 0.03 0.03 0.03 0.02 0.03 0.03 0.03 0.03 0.03 0.04 0.05 0.05 0.04 0.03 0.03 0.04 0.04 0.05 0.04 0.04 0.03 0.02 0.02 0.03 0.04 0.04 0.05 0.05 0.05
0.03 0.03 0.03 0.04 0.04 0.04 0.04 0.05 0.04 0.03 0.03 0.03 0.02 0.02 0.02 0.03 0.03 0.04 0.04 0.04 0.04 0.04 0.04 0.03 0.04 0.04 0.05 0.05 0.04 0.03 0.02 0.02 0.03 0.04 0.04 0.05 0.04 0.04
0.03 0.03 0.03 0.03 0.04 0.05 0.06 0.06 0.04 0.03 0.03 0.03 0.03 0.03 0.04 0.04 0.04 0.04 0.04 0.04 0.04 0.04 0.04 0.03 0.03 0.03 0.04 0.04 0.03 0.03 0.03 0.03 0.03 0.04 0.05 0.05 0.05 0.04
0.04 0.04 0.04 0.04 0.04 0.05 0.05 0.05 0.04 0.05 0.05 0.04 0.04 0.04 0.05 0.05 0.05 0.05 0.04 0.04 0.04 0.04 0.04 0.03 0.03 0.03 0.04 0.03 0.03 0.03 0.03 0.03 0.03 0.04 0.05 0.06 0.05 0.05
0.05 0.05 0.04 0.04 0.03 0.03 0.03 0.03 0.03 0.04 0.04 0.05 0.05 0.05 0.05 0.04 0.04 0.04 0.04 0.04 0.04 0.03 0.03 0.04 0.04 0.04 0.04 0.03 0.03 0.03 0.03 0.03 0.03 0.04 0.06 0.06 0.06 0.06
0.06 0.06 0.04 0.03 0.03 0.03 0.03 0.03 0.03 0.03 0.04 0.05 0.05 0.06 0.05 0.05 0.04 0.03 0.03 0.03 0.03 0.03 0.03 0.03 0.04 0.04 0.04 0.03 0.03 0.02 0.03 0.03 0.04 0.04 0.05 0.06 0.06 0.06
0.06 0.07 0.06 0.05 0.04 0.04 0.04 0.04 0.03 0.03 0.04 0.05 0.06 0.06 0.05 0.05 0.04 0.04 0.03 0.03 0.02 0.03 0.03 0.03 0.03 0.04 0.04 0.04 0.03 0.03 0.03 0.03 0.04 0.04 0.05 0.05 0.06 0.06
0.06 0.07 0.08 0.07 0.06 0.06 0.05 0.05 0.05 0.04 0.04 0.05 0.05 0.05 0.05 0.04 0.04 0.04 0.03 0.03 0.03 0.03 0.03 0.03 0.02 0.03 0.04 0.04 0.04 0.04 0.04 0.04 0.04 0.05 0.05 0.05 0.05 0.05
0.06 0.07 0.07 0.08 0.08 0.08 0.08 0.07 0.07 0.06 0.06 0.05 0.05 0.04 0.04 0.04 0.04 0.04 0.04 0.04 0.03 0.03 0.03 0.03 0.03 0.03 0.04 0.04 0.04 0.03 0.04 0.05 0.04 0.05 0.06 0.07 0.06 0.06
0.06 0.06 0.06 0.07 0.07 0.08 0.08 0.08 0.08 0.07 0.06 0.06 0.05 0.05 0.04 0.04 0.04 0.04 0.04 0.04 0.04 0.04 0.03 0.03 0.03 0.03 0.04 0.04 0.05 0.05 0.05 0.05 0.05 0.05 0.05 0.05 0.05 0.05
MSLP
1020.47 1020.63 1020.80 1020.95 1021.08 1021.18 1021.26 1021.30 1021.33 1021.34 1021.35 1021.36 1021.37 1021.37 1021.36 1021.31 1021.23 1021.09 1020.88 1020.60 1020.23 1019.78 1019.27 1018.69 1018.06 1017.39 1016.72 1016.04 1015.38 1014.75 1014.15 1013.60 1013.08 1012.59 1012.12 1011.67 1011.24 1010.80
1020.70 1020.92 1021.14 1021.34 1021.50 1021.62 1021.69 1021.72 1021.72 1021.68 1021.62 1021.55 1021.46 1021.37 1021.25 1021.10 1020.91 1020.67 1020.38 1020.02 1019.60 1019.12 1018.58 1018.00 1017.38 1016.74 1016.08 1015.42 1014.76 1014.12 1013.51 1012.92 1012.37 1011.84 1011.33 1010.85 1010.38 1009.92
1020.82 1021.09 1021.36 1021.59 1021.79 1021.93 1022.01 1022.03 1022.00 1021.92 1021.81 1021.66 1021.49 1021.30 1021.07 1020.81 1020.52 1020.18 1019.79 1019.35 1018.88 1018.36 1017.81 1017.23 1016.62 1016.00 1015.37 1014.72 1014.07 1013.43 1012.80 1012.18 1011.58 1011.01 1010.45 1009.92 1009.42 1008.93
1020.76 1021.08 1021.38 1021.65 1021.86 1022.01 1022.10 1022.11 1022.07 1021.97 1021.82 1021.62 1021.39 1021.11 1020.80 1020.45 1020.06 1019.62 1019.15 1018.65 1018.12 1017.57 1017.00 1016.42 1015.82 1015.21 1014.58 1013.95 1013.30 1012.64 1011.98 1011.32 1010.68 1010.06 1009.46 1008.89 1008.35 1007.84
1020.51 1020.86 1021.18 1021.46 1021.68 1021.84 1021.92 1021.94 1021.89 1021.77 1021.60 1021.38 1021.11 1020.79 1020.43 1020.01 1019.56 1019.06 1018.54 1017.98 1017.41 1016.82 1016.23 1015.63 1015.02 1014.39 1013.75 1013.09 1012.41 1011.72 1011.02 1010.32 1009.63 1008.97 1008.34 1007.75 1007.20 1006.68
1020.09 1020.44 1020.77 1021.05 1021.26 1021.41 1021.49 1021.50 1021.45 1021.34 1021.17 1020.95 1020.67 1020.35 1019.97 1019.54 1019.07 1018.55 1017.99 1017.41 1016.81 1016.19 1015.56 1014.91 1014.26 1013.59 1012.89 1012.17 1011.43 1010.67 1009.91 1009.16 1008.43 1007.74 1007.10 1006.50 1005.96 1005.45
1019.53 1019.88 1020.19 1020.46 1020.66 1020.79 1020.86 1020.87 1020.82 1020.71 1020.56 1020.37 1020.12 1019.83 1019.48 1019.08 1018.63 1018.12 1017.57 1016.98 1016.36 1015.70 1015.02 1014.31 1013.58 1012.82 1012.03 1011.21 1010.37 1009.52 1008.69 1007.88 1007.11 1006.40 1005.75 1005.17 1004.66 1004.19
1018.90 1019.23 1019.53 1019.77 1019.95 1020.06 1020.11 1020.11 1020.07 1019.98 1019.86 1019.71 1019.52 1019.29 1019.00 1018.66 1018.27 1017.81 1017.29 1016.70 1016.06 1015.37 1014.62 1013.83 1012.99 1012.11 1011.19 1010.24 1009.28 1008.33 1007.40 1006.53 1005.72 1004.99 1004.35 1003.80 1003.31 1002.89
1018.25 1018.56 1018.84 1019.05 1019.21 1019.30 1019.33 1019.33 1019.29 1019.22 1019.14 1019.04 1018.92 1018.76 1018.56 1018.31 1017.98 1017.58 1017.10 1016.54 1015.88 1015.15 1014.33 1013.44 1012.47 1011.45 1010.39 1009.30 1008.21 1007.14 1006.12 1005.18 1004.33 1003.58 1002.94 1002.41 1001.95 1001.55
1017.61 1017.91 1018.16 1018.36 1018.49 1018.56 1018.59 1018.58 1018.55 1018.51 1018.46 1018.42 1018.36 1018.28 1018.16 1017.99 1017.74 1017.40 1016.96 1016.41 1015.74 1014.96 1014.07 1013.08 1012.00 1010.84 1009.64 1008.42 1007.20 1006.02 1004.91 1003.90 1003.00 1002.23 1001.57 1001.03 1000.58 1000.18
1017.00 1017.29 1017.53 1017.71 1017.83 1017.89 1017.91 1017.90 1017.88 1017.86 1017.85 1017.85 1017.85 1017.83 1017.78 1017.67 1017.49 1017.19 1016.78 1016.24 1015.55 1014.72 1013.76 1012.68 1011.50 1010.24 1008.93 1007.59 1006.28 1005.01 1003.83 1002.75 1001.79 1000.96 1000.26 999.68 999.19 998.76
1016.41 1016.69 1016.92 1017.10 1017.21 1017.27 1017.29 1017.28 1017.27 1017.28 1017.29 1017.33 1017.37 1017.39 1017.39 1017.32 1017.16 1016.89 1016.48 1015.93 1015.22 1014.35 1013.34 1012.19 1010.94 1009.61 1008.22 1006.82 1005.43 1004.10 1002.85 1001.71 1000.68 999.78 999.01 998.34 997.76 997.25
1015.81 1016.09 1016.31 1016.49 1016.60 1016.67 1016.70 1016.71 1016.71 1016.73 1016.77 1016.83 1016.89 1016.94 1016.94 1016.88 1016.73 1016.45 1016.03 1015.45 1014.71 1013.80 1012.75 1011.57 1010.28 1008.91 1007.49 1006.05 1004.63 1003.26 1001.96 1000.75 999.64 998.65 997.75 996.96 996.26 995.64
1015.18 1015.45 1015.67 1015.85 1015.97 1016.05 1016.10 1016.13 1016.16 1016.20 1016.26 1016.33 1016.40 1016.45 1016.45 1016.37 1016.19 1015.88 1015.42 1014.81 1014.02 1013.09 1012.01 1010.80 1009.50 1008.12 1006.70 1005.26 1003.82 1002.42 1001.08 999.80 998.60 997.48 996.45 995.52 994.67 993.91
1014.51 1014.76 1014.98 1015.16 1015.29 1015.39 1015.46 1015.52 1015.58 1015.65 1015.73 1015.82 1015.89 1015.93 1015.91 1015.80 1015.57 1015.21 1014.70 1014.04 1013.21 1012.24 1011.14 1009.92 1008.62 1007.24 1005.83 1004.39 1002.95 1001.52 1000.13 998.77 997.46 996.22 995.05 993.96 992.97 992.08
1013.78 1014.02 1014.22 1014.40 1014.54 1014.67 1014.77 1014.87 1014.97 1015.08 1015.19 1015.30 1015.38 1015.41 1015.36 1015.21 1014.94 1014.52 1013.95 1013.23 1012.35 1011.34 1010.20 1008.97 1007.66 1006.29 1004.87 1003.43 1001.97 1000.51 999.05 997.61 996.19 994.82 993.52 992.29 991.18 990.20
1013.03 1013.23 1013.42 1013.59 1013.75 1013.90 1014.04 1014.18 1014.34 1014.50 1014.65 1014.79 1014.88 1014.91 1014.85 1014.66 1014.34 1013.87 1013.24 1012.45 1011.52 1010.46 1009.28 1008.02 1006.69 1005.29 1003.86 1002.38 1000.88 999.36 997.83 996.30 994.78 993.30 991.88 990.55 989.36 988.34
1012.26 1012.43 1012.60 1012.77 1012.94 1013.11 1013.29 1013.49 1013.70 1013.91 1014.12 1014.30 1014.42 1014.47 1014.40 1014.19 1013.83 1013.31 1012.63 1011.78 1010.79 1009.67 1008.45 1007.13 1005.75 1004.31 1002.82 1001.28 999.72 998.12 996.50 994.87 993.26 991.70 990.21 988.84 987.63 986.63
1011.53 1011.66 1011.81 1011.96 1012.14 1012.33 1012.56 1012.81 1013.08 1013.36 1013.62 1013.85 1014.02 1014.08 1014.01 1013.80 1013.42 1012.86 1012.14 1011.24 1010.19 1009.01 1007.73 1006.35 1004.90 1003.38 1001.82 1000.20 998.54 996.86 995.15 993.44 991.76 990.15 988.63 987.27 986.11 985.18
1010.84 1010.94 1011.06 1011.20 1011.38 1011.61 1011.87 1012.17 1012.49 1012.83 1013.15 1013.44 1013.64 1013.73 1013.69 1013.47 1013.09 1012.51 1011.75 1010.82 1009.72 1008.49 1007.14 1005.70 1004.17 1002.58 1000.92 999.22 997.47 995.69 993.91 992.14 990.42 988.79 987.29 985.99 984.91 984.10
1010.23 1010.29 1010.38 1010.52 1010.70 1010.94 1011.23 1011.57 1011.95 1012.34 1012.71 1013.04 1013.28 1013.41 1013.38 1013.18 1012.79 1012.21 1011.43 1010.48 1009.36 1008.09 1006.70 1005.19 1003.61 1001.94 1000.21 998.42 996.60 994.75 992.91 991.10 989.37 987.75 986.31 985.09 984.12 983.44
1009.68 1009.71 1009.78 1009.90 1010.08 1010.33 1010.65 1011.02 1011.44 1011.87 1012.28 1012.65 1012.92 1013.07 1013.06 1012.88 1012.50 1011.92 1011.15 1010.19 1009.06 1007.77 1006.36 1004.83 1003.21 1001.50 999.72 997.89 996.01 994.13 992.26 990.44 988.72 987.15 985.77 984.63 983.77 983.22
1009.21 1009.20 1009.24 1009.35 1009.53 1009.79 1010.13 1010.52 1010.97 1011.42 1011.86 1012.25 1012.55 1012.71 1012.72 1012.54 1012.18 1011.61 1010.85 1009.91 1008.80 1007.53 1006.13 1004.61 1002.99 1001.28 999.50 997.66 995.78 993.89 992.02 990.23 988.54 987.02 985.70 984.63 983.85 983.37
Thickness
5538 5538 5538 5539 5538 5538 5537 5537 5538 5542 5546 5545 5542 5541 5539 5538 5537 5536 5535 5534 5532 5531 5530 5528 5527 5526 5525 5524 5523 5522 5520 5519 5519 5518 5518 5517 5517 5516
5528 5528 5528 5528 5527 5527 5526 5526 5527 5528 5532 5535 5532 5530 5529 5528 5527 5526 5526 5524 5523 5522 5520 5519 5518 5516 5516 5514 5513 5511 5510 5509 5508 5508 5508 5507 5507 5506
5517 5517 5517 5516 5516 5516 5515 5515 5515 5515 5518 5521 5520 5519 5518 5517 5517 5516 5515 5514 5514 5512 5510 5509 5508 5507 5506 5504 5503 5501 5500 5499 5498 5498 5497 5497 5496 5495
5507 5507 5507 5506 5505 5505 5504 5504 5504 5504 5505 5507 5508 5507 5506 5507 5506 5506 5504 5503 5502 5501 5500 5499 5497 5497 5496 5494 5493 5491 5489 5488 5487 5487 5486 5486 5485 5484
5497 5497 5497 5496 5496 5495 5494 5493 5493 5493 5494 5495 5496 5495 5495 5495 5495 5494 5493 5492 5491 5490 5489 5488 5487 5487 5485 5484 5483 5481 5479 5478 5477 5476 5475 5474 5474 5473
5487 5487 5486 5486 5486 5485 5484 5483 5482 5482 5483 5483 5484 5484 5484 5484 5482 5482 5481 5480 5479 5479 5478 5478 5477 5476 5475 5474 5473 5471 5469 5467 5466 5465 5464 5463 5463 5463
5477 5476 5476 5475 5474 5474 5473 5473 5472 5471 5471 5472 5473 5473 5473 5472 5471 5470 5469 5469 5469 5468 5469 5468 5468 5468 5466 5465 5463 5461 5459 5458 5457 5455 5454 5453 5453 5454
5466 5466 5465 5464 5463 5462 5462 5462 5461 5461 5462 5461 5462 5463 5464 5462 5460 5458 5457 5457 5459 5459 5458 5458 5457 5457 5457 5456 5454 5452 5450 5449 5447 5446 5445 5444 5444 5445
5455 5455 5455 5454 5453 5453 5452 5452 5451 5451 5451 5452 5453 5454 5454 5453 5450 5448 5446 5447 5448 5447 5445 5447 5447 5447 5446 5446 5443 5442 5440 5440 5438 5437 5436 5435 5436 5436
5443 5443 5443 5444 5443 5443 5443 5442 5443 5443 5443 5442 5444 5445 5443 5441 5438 5437 5436 5435 5434 5433 5432 5434 5436 5435 5435 5434 5433 5432 5430 5430 5429 5428 5428 5427 5427 5427
5432 5432 5432 5433 5433 5432 5432 5433 5433 5434 5433 5432 5433 5433 5432 5430 5427 5424 5423 5421 5422 5421 5419 5420 5422 5422 5423 5423 5422 5420 5419 5419 5419 5419 5419 5418 5418 5419
5421 5421 5421 5421 5421 5421 5421 5422 5423 5424 5423 5423 5423 5422 5421 5419 5417 5415 5413 5411 5410 5410 5409 5406 5408 5406 5409 5412 5410 5409 5408 5408 5408 5409 5409 5409 5409 5408
5411 5411 5412 5411 5411 5411 5410 5412 5413 5413 5412 5412 5412 5411 5410 5408 5406 5404 5402 5400 5400 5400 5398 5395 5395 5394 5394 5397 5398 5397 5396 5397 5398 5398 5399 5399 5399 5399
5401 5402 5402 5401 5401 5401 5401 5402 5402 5401 5401 5401 5401 5400 5398 5396 5394 5392 5390 5388 5388 5388 5386 5384 5384 5383 5382 5384 5386 5387 5386 5386 5387 5388 5388 5389 5390 5390
5392 5392 5391 5391 5391 5392 5392 5392 5391 5391 5390 5389 5389 5388 5385 5383 5381 5379 5378 5377 5376 5375 5375 5374 5374 5373 5372 5373 5376 5376 5376 5376 5376 5377 5378 5379 5380 5381
5382 5382 5381 5381 5381 5382 5382 5382 5381 5380 5379 5379 5377 5375 5372 5370 5369 5369 5368 5367 5366 5365 5363 5362 5362 5361 5362 5363 5364 5365 5366 5366 5367 5367 5368 5369 5371 5371
5374 5373 5373 5373 5373 5373 5373 5372 5371 5370 5368 5367 5365 5363 5361 5359 5359 5358 5357 5356 5356 5356 5354 5353 5351 5350 5350 5351 5353 5356 5356 5357 5357 5357 5358 5360 5363 5363
5365 5366 5365 5364 5364 5364 5363 5362 5361 5360 5358 5356 5355 5353 5351 5350 5349 5347 5347 5347 5347 5346 5346 5344 5342 5340 5341 5342 5343 5345 5347 5347 5347 5347 5348 5350 5354 5356
5356 5357 5357 5356 5355 5354 5353 5352 5352 5350 5348 5346 5345 5343 5342 5340 5338 5338 5337 5337 5338 5337 5336 5334 5332 5332 5335 5338 5338 5335 5335 5337 5337 5338 5339 5341 5345 5348
5348 5348 5347 5347 5346 5345 5345 5344 5342 5340 5339 5337 5336 5334 5333 5331 5330 5329 5328 5328 5328 5327 5326 5325 5323 5323 5324 5326 5327 5327 5325 5326 5327 5329 5330 5332 5335 5337
5341 5340 5339 5338 5337 5337 5336 5336 5334 5332 5331 5329 5328 5326 5325 5324 5322 5321 5320 5319 5318 5318 5318 5317 5315 5313 5312 5313 5316 5319 5318 5317 5318 5320 5321 5323 5327 5331
5333 5332 5331 5330 5329 5329 5329 5328 5326 5325 5324 5322 5321 5319 5317 5316 5315 5313 5312 5311 5310 5310 5309 5307 5306 5305 5305 5307 5309 5310 5311 5310 5311 5312 5313 5315 5318 5323
5325 5324 5323 5323 5322 5322 5322 5320 5319 5318 5317 5315 5314 5312 5310 5308 5307 5305 5304 5303 5302 5301 5300 5299 5298 5298 5298 5300 5301 5302 5302 5303 5305 5306 5308 5310 5312 5314